Location: Fernhill
(41.0167°S, 175.6333°E)
Time: 10:34:57
(UTC+00:00)

Cosmos 1626 Rocket - Pass Details

Date: 08 November 2025
Orbit: 597 x 624 km, 82.5° (Epoch: 11 December)

Event Time Altitude Azimuth Distance (km) Brightness Sun altitude
Exits shadow 10:19:08 43° 162° (SSE) 866 4.5 -27.6°
Drops below altitude 10° 10:22:08 10° 169° (S) 1,980 6.8 -27.9°
Sets 10:24:22 0° 170° (S) 2,889 7.8 -28.1°
